FENGYUN 1C DEB

Satellite information

Favourite Embed

Satellite Type and Status

DEBRISIN ORBIT

Key statistics

Satellite FENGYUN 1C DEB at a glance.

Uptime

9715

Days in orbit

Revolutions

≈ 14.2

Per day

Orbit

SSO

Sun Synchronous Orbit

Inclination

98.6

Latest

Satellite identification and parameters

Extended collection of information and parameters for FENGYUN 1C DEB.

Object identification

Identified? True

Debris? True

Object name: FENGYUN 1C DEB

International designator: 1999-025KJ

Object number (NORAD): 29960

Object ID (CCSDS): 29960

Country: PEOPLES REPUBLIC OF CHINA (PRC)

Current information (Y/N): Y

RCS size: SMALL

Orbital parameters

Period: 101.666 minutes

Inclination: 98.6143 deg

SMA: 7215.68 km

Apoapsis: 903.164 km

Periapsis: 771.925 km

RAAN: 332.2953 deg

Eccentricy: 0.00909404

Argument of periapsis: 286.342 deg

Mean anomaly: 255.8337 deg

Mean motion: 14.16403218 rev/day

Mean motion (dot): 0.00001458 rev/day2

B* drag term: 0.00072558014 1/REarth

Two-line elements (TLE)

Creation date: Dec. 13, 2025, 4:32 a.m.

Reference frame: TEME

Reference center: EARTH

Epoch: Dec. 12, 2025, 5:23 p.m. UTC

TLE line 0: 0 FENGYUN 1C DEB

TLE line 1: 1 29960U 99025KJ 25346.72433998 .00001458 00000-0 72558-3 0 9994

TLE line 2: 2 29960 98.6143 332.2953 0090940 286.3420 255.8337 14.16403218974545

Live tracking on map

Real-time ground track for satellite FENGYUN 1C DEB.

In-orbit conjunctions

A list of the most updated potential collisions computed for object FENGYUN 1C DEB.

Target Orbit TCA Probability of collision Miss distance Type
METEOR 2-17 DEB LEO 2025-11-03 02:30:44 0.0001354343 126.0 (m) DEBRIS
THORAD AGENA D DEB SSO 2025-09-26 17:27:52 0.0002750807 82.0 (m) DEBRIS
COSMOS 1275 DEB LEO 2025-01-06 00:19:51 0.0006761807 15.0 (m) DEBRIS

Associated space launch

Chinese polar orbiting meteorological satellite

FENGYUN 1C DEB was lifted into orbit during the mission ‘Long March 4B | Feng Yun 1C’, on board a Long March 4B space rocket.

The launch took place on May 10, 1999, 1:33 a.m. from Launch Complex 7.

For more information about the launch, click the button.

Launch to space Long March 4B | Feng Yun 1C
Long March 4B | Feng Yun 1C

Agency: N/A

Status: Launch Successful

Launch date: May 10, 1999, 1:33 a.m. UTC

Rocket: Long March 4B

Launch pad: Launch Complex 7

Location: Taiyuan Satellite Launch Center, People's Republic of China

...

Latest news about this satellite

There are no fresh news available about this satellite. Check back as we update our databases every day.


Newsletter sign-up

Weekly statistics, charts and insights to help you stay on top of the space industry.